This demonstration page uses our WeatherBlox Daily Observations layout. Learn more.

38.89511, -77.03637

Hourly Observations for April 20, 2015

Temp ( °F °C ) Dew Point ( °F °C ) Humidity (%) Winds ( mph kmh ) Pressure ( in mb ) Visibility ( mi km ) Precip ( " mm )
12:52 am 00:52 Cloudy with Light Rain 57 14 52 11 82 82 E 14 22 29.83 1010 5 8.04672 0.06 1.524
1:48 am 01:48 Cloudy with Rain 59 15 54 12 82 82 E 9 15 29.77 1008 3 4.828032 0 0
1:52 am 01:52 Cloudy with Rain 59 15 54 12 82 82 E 14 22 29.77 1008 4 6.437376 0.18 4.572
2:16 am 02:16 Cloudy with Rain 61 16 55 13 83 83 ESE 15 24 29.77 1008 3 4.828032 0 0
2:35 am 02:35 Cloudy with Light Rain 61 16 55 13 83 83 ESE 22 35 29.71 1006 4 6.437376 0.16 4.064
2:52 am 02:52 Cloudy with Light Rain 61 16 55 13 83 83 ESE 21 33 29.71 1006 4 6.437376 0.19 4.826
3:52 am 03:52 Cloudy with Light Rain 63 17 57 14 83 83 ESE 21 33 29.65 1004 6 9.656064 0.08 2.032
4:25 am 04:25 Cloudy with Light Rain 64 18 61 16 88 88 SSW 14 22 29.68 1005 7 11.265408 0.02 0.508
4:27 am 04:27 Cloudy with Light Rain 64 18 61 16 88 88 WSW 12 19 29.65 1004 7 11.265408 0.02 0.508
4:52 am 04:52 Cloudy with Light Rain 66 19 63 17 88 88 S 14 22 29.65 1004 7 11.265408 0.04 1.016
5:09 am 05:09 Cloudy with Light Rain 66 19 63 17 88 88 SSE 16 26 29.65 1004 8 12.874752 0.001 0.001
5:17 am 05:17 Cloudy with Light Rain 66 19 63 17 88 88 S 12 19 29.65 1004 7 11.265408 0.01 0.254
5:52 am 05:52 Cloudy with Light Rain 66 19 63 17 88 88 S 14 22 29.65 1004 7 11.265408 0.04 1.016
5:59 am 05:59 Cloudy 66 19 63 17 88 88 S 14 22 29.65 1004 7 11.265408 0.001 0.001
6:03 am 06:03 Cloudy with Light Rain 66 19 63 17 88 88 S 13 20 29.65 1004 10 16.09344 0 0
6:11 am 06:11 Cloudy with Light Rain 66 19 63 17 88 88 S 12 19 29.65 1004 10 16.09344 0.001 0.001
6:52 am 06:52 Cloudy with Light Rain 66 19 63 17 88 88 S 8 13 29.65 1004 7 11.265408 0.001 0.001
7:10 am 07:10 Cloudy with Light Rain 66 19 63 17 88 88 SSW 8 13 29.68 1005 3 4.828032 0 0
7:20 am 07:20 Cloudy with Light Rain 66 19 63 17 88 88 SW 6 9 29.68 1005 6 9.656064 0 0
7:27 am 07:27 Cloudy 66 19 63 17 88 88 SW 5 7 29.68 1005 10 16.09344 0.01 0.254
7:52 am 07:52 Cloudy with Light Rain 66 19 64 18 94 94 SSW 8 13 29.65 1004 10 16.09344 0.01 0.254
8:18 am 08:18 Cloudy 68 20 64 18 88 88 SSW 7 11 29.68 1005 10 16.09344 0 0
8:20 am 08:20 Cloudy 68 20 64 18 88 88 SSW 7 11 29.68 1005 10 16.09344 0 0
8:52 am 08:52 Cloudy 70 21 64 18 83 83 WSW 10 17 29.68 1005 10 16.09344 0.001 0.001
9:36 am 09:36 Cloudy 70 21 63 17 78 78 W 8 13 29.68 1005 10 16.09344 0 0
9:52 am 09:52 Cloudy 70 21 63 17 78 78 WSW 6 9 29.68 1005 10 16.09344 0 0
10:14 am 10:14 Cloudy 72 22 63 17 73 73 WSW 8 13 29.68 1005 10 16.09344 0 0
10:52 am 10:52 Mostly Cloudy 72 22 63 17 73 73 WSW 10 17 29.68 1005 10 16.09344 0 0
11:19 am 11:19 Mostly Cloudy 72 22 63 17 73 73 SSW 10 17 29.68 1005 10 16.09344 0 0
11:52 am 11:52 Mostly Cloudy 73 23 63 17 69 69 SW 9 15 29.65 1004 10 16.09344 0 0
12:52 pm 12:52 Cloudy 75 24 63 17 65 65 SSW 7 11 29.62 1003 10 16.09344 0 0
1:52 pm 13:52 Cloudy 79 26 59 15 51 51 S 16 26 29.59 1002 10 16.09344 0 0
2:52 pm 14:52 Cloudy 79 26 61 16 54 54 S 14 22 29.56 1001 10 16.09344 0 0
3:52 pm 15:52 Mostly Cloudy 77 25 61 16 57 57 S 12 19 29.56 1001 10 16.09344 0 0
4:52 pm 16:52 Mostly Cloudy with Light Rain 79 26 59 15 51 51 SSW 15 24 29.53 1000 10 16.09344 0.001 0.001
5:38 pm 17:38 Mostly Cloudy with Thunderstorms 79 26 61 16 54 54 S 10 17 29.53 1000 10 16.09344 0 0
5:47 pm 17:47 Windy with Storms Likely 73 23 63 17 69 69 S 22 35 29.53 1000 8 12.874752 0.001 0.001
5:52 pm 17:52 Mostly Cloudy with Light Thunderstorms 72 22 63 17 73 73 SSE 16 26 29.53 1000 8 12.874752 0.001 0.001
6:06 pm 18:06 Mostly Cloudy 72 22 63 17 73 73 SSE 8 13 29.53 1000 10 16.09344 0 0
6:52 pm 18:52 Mostly Cloudy 72 22 64 18 78 78 S 7 11 29.53 1000 10 16.09344 0.001 0.001
7:52 pm 19:52 Mostly Cloudy 75 24 61 16 61 61 SSE 15 24 29.5 999 10 16.09344 0 0
7:55 pm 19:55 Mostly Cloudy with Thunderstorms 75 24 61 16 61 61 SSE 15 24 29.5 999 10 16.09344 0 0
8:19 pm 20:19 Cloudy with Heavy Thunderstorms 66 19 57 14 73 73 WNW 18 30 29.53 1000 1.5 2.414016 0.07 1.778
8:29 pm 20:29 Cloudy with Light Thunderstorms 66 19 59 15 78 78 S 6 9 29.53 1000 3 4.828032 0.24 6.096
8:35 pm 20:35 Mostly Cloudy with Light Thunderstorms 66 19 61 16 83 83 Calm 29.53 1000 9 14.484096 0.25 6.35
8:52 pm 20:52 Mostly Cloudy with Light Rain 66 19 59 15 78 78 SSE 10 17 29.53 1000 10 16.09344 0.25 6.35
9:08 pm 21:08 Mostly Cloudy with Thunderstorms 66 19 59 15 78 78 S 8 13 29.53 1000 10 16.09344 0 0
9:31 pm 21:31 Mostly Cloudy with Light Rain 68 20 55 13 64 64 S 13 20 29.56 1001 10 16.09344 0.001 0.001
9:52 pm 21:52 Mostly Cloudy 64 18 55 13 73 73 S 10 17 29.56 1001 10 16.09344 0.001 0.001
10:52 pm 22:52 Mostly Cloudy 64 18 57 14 78 78 S 10 17 29.56 1001 10 16.09344 0 0
11:52 pm 23:52 Mostly Cloudy 64 18 57 14 78 78 S 6 9 29.56 1001 10 16.09344 0 0

Powered by AerisWeather